Location: Mount Kobau Star Party
(49.1167°N, 119.7333°W)
Time: 12:30:58
(UTC-07:00)

ARIANE 6 FM1 Upper Stage - Pass Details

Date: 19 April 2026
Orbit: 526 x 601 km, 62.0° (Epoch: 18 May)

Event Time Altitude Azimuth Distance (km) Brightness Sun altitude
Rises 20:52:29 0° 284° (WNW) 2,706 7.9 -9.0°
Reaches altitude 10° 20:55:29 10° 308° (NW) 1,801 6.9 -9.4°
Maximum altitude 20:57:57 15° 346° (NNW) 1,476 5.5 -9.8°
Drops below altitude 10° 21:00:24 10° 23° (NNE) 1,785 5.3 -10.1°
Sets 21:03:21 0° 47° (NE) 2,670 6.0 -10.5°
